CW2265 Weather Reports


Display with metric or nautical units.
time (UTC)temp
F
wind
direction
speed
MPH
gust
MPH
rain 1hr
in
rain 24hr
in
rain mn
in
humidity
%
barometer
mb
20171120052012 33 256 7.0 18.0 0.00 0.13 0.00 75 1011.7
20171120051505 33 276 8.0 14.0 0.00 0.13 0.00 74 1011.6
20171120051011 33 283 6.0 13.0 0.00 0.14 0.00 74 1011.4
20171120041009 33 288 7.0 12.0 0.00 0.24 0.14 77 1010.7
20171120040012 33 276 7.0 13.0 0.00 0.26 0.14 78 1010.7
20171120035505 33 267 6.0 12.0 0.00 0.27 0.14 79 1010.7
20171120035011 33 287 6.0 12.0 0.00 0.27 0.14 80 1010.6
20171120034505 33 281 5.0 12.0 0.00 0.28 0.14 80 1010.6
20171120034011 33 273 4.0 12.0 0.00 0.28 0.14 81 1010.6
20171120033505 33 274 8.0 12.0 0.00 0.28 0.14 81 1010.6
20171120031009 33 275 5.0 12.0 0.00 0.31 0.14 83 1010.4
20171120030505 33 268 6.0 14.0 0.00 0.31 0.14 83 1010.4
20171120030011 33 272 5.0 9.0 0.00 0.31 0.14 82 1010.4
20171120015505 33 270 5.0 12.0 0.00 0.37 0.14 81 1009.7
20171120014504 33 242 5.0 9.0 0.00 0.38 0.14 78 1009.7
20171120014009 33 268 4.0 10.0 0.00 0.38 0.14 77 1009.7
20171120013504 33 279 4.0 10.0 0.00 0.39 0.14 77 1009.7
20171120013011 33 292 3.0 8.0 0.00 0.39 0.14 77 1009.7
20171120012505 33 305 3.0 8.0 0.00 0.39 0.14 77 1009.7
20171120012011 33 281 3.0 8.0 0.00 0.39 0.14 76 1009.7
20171120011505 33 295 5.0 12.0 0.00 0.40 0.14 75 1009.7
20171120011011 33 283 7.0 12.0 0.00 0.40 0.14 75 1009.4
20171120010505 33 295 7.0 12.0 0.00 0.41 0.14 75 1009.4
20171120010008 33 300 5.0 12.0 0.00 0.41 0.14 75 1009.3
20171120005504 33 297 7.0 12.0 0.00 0.41 0.14 75 1009.3
20171120005010 33 308 7.0 12.0 0.00 0.41 0.14 75 1009.3
20171120004505 33 292 7.0 10.0 0.00 0.41 0.14 75 1009.1
20171120004008 33 289 6.0 13.0 0.00 0.41 0.14 74 1009.1
20171120003504 33 292 7.0 13.0 0.00 0.41 0.14 73 1009.1
20171120003011 33 288 6.0 12.0 0.00 0.41 0.14 73 1009.1
20171120002505 33 292 6.0 13.0 0.00 0.41 0.14 73 1009.1
20171120002011 34 310 4.0 12.0 0.00 0.42 0.14 73 1009.1
20171120001505 34 285 6.0 13.0 0.00 0.42 0.14 72 1009.1
20171120001009 34 299 7.0 13.0 0.00 0.42 0.14 73 1008.9
20171120000504 34 301 5.0 12.0 0.00 0.43 0.14 73 1008.8
20171120000008 34 307 7.0 17.0 0.00 0.43 0.14 72 1008.8
20171119235505 34 323 7.0 16.0 0.00 0.44 0.14 71 1008.7
20171119235011 34 311 6.0 16.0 0.00 0.45 0.14 71 1008.6
20171119234505 34 295 8.0 16.0 0.00 0.46 0.14 72 1008.6
20171119225011 35 313 5.0 10.0 0.00 0.50 0.14 73 1007.9
20171119224505 35 288 5.0 14.0 0.00 0.50 0.14 73 1007.6
20171119224011 35 310 8.0 16.0 0.00 0.51 0.14 74 1007.6
20171119220009 36 298 11.0 20.0 0.00 0.60 0.14 71 1006.8
20171119215505 36 294 9.0 17.0 0.00 0.61 0.14 71 1006.8
20171119215011 36 302 11.0 18.0 0.00 0.63 0.14 71 1006.9
20171119214509 36 293 9.0 20.0 0.00 0.65 0.14 71 1006.9
20171119214011 36 285 11.0 21.0 0.00 0.66 0.14 71 1006.9
20171119213505 36 306 10.0 15.0 0.00 0.67 0.14 72 1006.9
20171119213010 36 290 11.0 18.0 0.00 0.69 0.14 73 1006.5
20171119212505 36 286 9.0 17.0 0.00 0.69 0.14 73 1006.5
20171119212016 37 293 9.0 16.0 0.00 0.70 0.14 73 1006.5
20171119211505 37 308 10.0 20.0 0.00 0.71 0.14 74 1006.5
20171119211011 37 294 11.0 20.0 0.00 0.72 0.14 74 1006.5
20171119210504 37 286 11.0 25.0 0.01 0.72 0.14 74 1006.5
20171119210008 37 299 11.0 17.0 0.01 0.74 0.14 75 1005.9
20171119205506 37 313 12.0 22.0 0.01 0.75 0.14 75 1005.9
20171119205011 37 305 10.0 20.0 0.01 0.76 0.14 76 1005.9
20171119204506 37 277 12.0 21.0 0.01 0.76 0.14 76 1005.9
20171119203505 37 296 15.0 23.0 0.01 0.77 0.14 76 1005.7
20171119202011 37 290 17.0 29.0 0.01 0.77 0.14 76 1005.4
20171119201507 38 286 15.0 24.0 0.01 0.77 0.14 76 1005.4
20171119201011 38 291 14.0 26.0 0.01 0.77 0.14 77 1005.0
20171119200505 38 292 10.0 18.0 0.00 0.76 0.13 79 1005.0
20171119200009 38 292 7.0 14.0 0.00 0.76 0.13 81 1004.8
20171119195505 38 321 9.0 16.0 0.00 0.76 0.13 81 1004.8
20171119195011 38 296 10.0 20.0 0.00 0.76 0.13 81 1004.8
20171119194506 37 300 12.0 20.0 0.00 0.76 0.13 83 1004.8
20171119194009 37 293 12.0 23.0 0.00 0.76 0.13 84 1004.7
20171119193505 37 297 8.0 15.0 0.00 0.76 0.13 83 1004.3
20171119193011 38 293 13.0 23.0 0.00 0.76 0.13 80 1004.3
20171119182504 41 306 10.0 20.0 0.00 0.76 0.13 68 1003.9
20171119182010 41 280 12.0 20.0 0.00 0.76 0.13 68 1003.9
20171119181505 41 297 10.0 18.0 0.00 0.76 0.13 70 1003.9
20171119181010 40 289 6.0 13.0 0.00 0.76 0.13 71 1003.9
20171119180505 41 284 6.0 15.0 0.00 0.76 0.13 70 1003.9
20171119180008 41 296 7.0 17.0 0.00 0.76 0.13 69 1003.9
20171119175505 41 313 12.0 18.0 0.00 0.76 0.13 69 1003.9
20171119175010 41 293 8.0 17.0 0.00 0.76 0.13 70 1003.9
20171119174504 41 301 7.0 17.0 0.00 0.76 0.13 70 1003.9
20171119174008 41 290 10.0 20.0 0.00 0.76 0.13 69 1003.7
20171119173504 41 290 10.0 18.0 0.00 0.76 0.13 70 1003.7
20171119173009 41 295 9.0 15.0 0.00 0.76 0.13 70 1003.7
20171119172509 41 303 8.0 16.0 0.00 0.76 0.13 71 1003.7
20171119172012 40 311 11.0 20.0 0.00 0.76 0.13 70 1003.7
20171119171505 40 313 11.0 20.0 0.00 0.76 0.13 70 1003.8
20171119171008 41 298 10.0 17.0 0.00 0.76 0.13 70 1003.8
20171119170504 41 311 9.0 13.0 0.00 0.76 0.13 70 1003.8
20171119170011 41 314 10.0 14.0 0.00 0.76 0.13 70 1003.8
20171119165505 41 314 9.0 18.0 0.00 0.76 0.13 69 1003.7
20171119165011 41 313 9.0 17.0 0.00 0.76 0.13 70 1003.6
20171119164504 41 316 8.0 17.0 0.00 0.76 0.13 73 1003.5
20171119164010 41 305 6.0 12.0 0.00 0.76 0.13 74 1003.5
20171119163504 40 306 7.0 12.0 0.01 0.76 0.13 75 1003.5
20171119163008 40 304 10.0 16.0 0.01 0.76 0.13 75 1003.7
20171119162504 39 325 9.0 14.0 0.01 0.76 0.13 79 1003.6
20171119162013 39 294 6.0 14.0 0.01 0.76 0.13 83 1003.7
20171119161507 39 285 6.0 13.0 0.01 0.76 0.13 85 1003.7
20171119161012 38 286 7.0 13.0 0.01 0.76 0.13 86 1003.8
20171119160505 38 325 3.0 9.0 0.01 0.76 0.13 87 1003.7
20171119160009 38 316 3.0 9.0 0.01 0.76 0.13 88 1003.7
20171119155505 38 294 4.0 7.0 0.01 0.76 0.13 88 1003.8
20171119155011 38 304 3.0 7.0 0.01 0.76 0.13 88 1003.6
20171119154505 38 298 5.0 10.0 0.01 0.76 0.13 87 1003.6
20171119154011 38 297 7.0 13.0 0.01 0.76 0.13 85 1003.5
20171119153505 38 326 7.0 12.0 0.00 0.76 0.13 84 1003.5
20171119153008 39 314 5.0 15.0 0.00 0.76 0.13 83 1003.4
20171119152505 39 312 9.0 16.0 0.00 0.76 0.13 80 1003.3
20171119152011 39 306 5.0 10.0 0.00 0.76 0.13 81 1003.3
20171119151504 39 291 7.0 16.0 0.00 0.76 0.13 79 1003.2
20171119143011 39 302 7.0 15.0 0.00 0.76 0.13 76 1002.7
20171119142504 39 300 9.0 16.0 0.00 0.76 0.13 76 1002.3
20171119142009 39 304 6.0 14.0 0.00 0.76 0.13 76 1002.3
20171119141504 39 317 9.0 17.0 0.00 0.76 0.13 76 1002.3
20171119141009 39 299 9.0 20.0 0.00 0.76 0.13 76 1002.3
20171119140504 39 308 9.0 18.0 0.00 0.76 0.13 76 1002.2
20171119140012 39 305 10.0 18.0 0.00 0.76 0.13 77 1002.0
20171119135505 39 302 9.0 17.0 0.00 0.76 0.13 77 1001.8
20171119135014 39 311 9.0 16.0 0.00 0.76 0.13 78 1001.8
20171119134506 39 297 9.0 20.0 0.00 0.76 0.13 78 1001.8
20171119134015 38 303 11.0 20.0 0.00 0.76 0.13 78 1001.7
20171119133509 38 308 11.0 21.0 0.00 0.76 0.13 78 1001.5
20171119133013 38 301 9.0 20.0 0.00 0.76 0.13 78 1001.5
20171119132506 38 308 7.0 20.0 0.00 0.76 0.13 79 1001.3
20171119131505 38 298 10.0 20.0 0.00 0.76 0.13 80 1001.3
20171119131013 38 294 10.0 21.0 0.00 0.76 0.13 81 1001.2
20171119130505 37 283 12.0 20.0 0.00 0.76 0.13 81 1001.1
20171119130014 37 301 9.0 16.0 0.00 0.76 0.13 81 1000.7
20171119123505 38 311 7.0 16.0 0.00 0.76 0.13 80 1000.4
20171119123011 38 288 12.0 18.0 0.00 0.76 0.13 80 1000.2
20171119122505 38 300 6.0 14.0 0.00 0.76 0.13 81 1000.2
20171119122013 38 293 9.0 15.0 0.00 0.76 0.13 81 1000.2
20171119121505 38 293 8.0 15.0 0.00 0.76 0.13 81 999.9
20171119121013 38 295 8.0 15.0 0.00 0.76 0.13 81 999.8
20171119120507 38 308 7.0 14.0 0.00 0.76 0.13 81 999.2
20171119120011 38 294 7.0 16.0 0.00 0.76 0.13 81 999.2
20171119115507 38 291 7.0 17.0 0.00 0.76 0.13 81 999.2
20171119115012 39 294 7.0 15.0 0.00 0.76 0.13 81 999.2
20171119114507 38 294 13.0 21.0 0.00 0.76 0.13 81 999.2
20171119114011 38 309 7.0 13.0 0.00 0.76 0.13 81 999.1
20171119113507 39 283 5.0 12.0 0.00 0.76 0.13 81 998.9
20171119113011 39 286 6.0 14.0 0.00 0.77 0.13 81 998.9
20171119112507 39 288 10.0 18.0 0.00 0.77 0.13 81 998.6
20171119112011 39 309 7.0 17.0 0.00 0.77 0.13 81 998.6
20171119111507 39 304 10.0 18.0 0.00 0.77 0.13 81 998.3
20171119111011 39 312 9.0 20.0 0.00 0.77 0.13 81 998.3
20171119110507 39 320 11.0 20.0 0.00 0.78 0.13 81 998.1
20171119110011 39 315 12.0 20.0 0.00 0.78 0.13 81 998.1
20171119105507 39 322 9.0 16.0 0.00 0.78 0.13 81 998.1
20171119100507 39 313 13.0 24.0 0.00 0.80 0.13 82 996.1
20171119100013 39 326 13.0 21.0 0.00 0.80 0.13 81 996.1
20171119095507 39 322 13.0 21.0 0.00 0.80 0.13 82 996.0
20171119095015 39 312 10.0 20.0 0.00 0.80 0.13 83 995.9
20171119094508 39 322 10.0 20.0 0.00 0.80 0.13 84 995.4
20171119094012 39 314 10.0 20.0 0.00 0.80 0.13 84 995.4
20171119090508 39 326 14.0 22.0 0.00 0.80 0.13 85 994.1
20171119090015 39 311 12.0 25.0 0.00 0.80 0.13 86 994.1
20171119085509 39 309 13.0 22.0 0.01 0.80 0.13 87 993.9
20171119085014 39 328 16.0 23.0 0.01 0.80 0.13 86 993.0
20171119084507 39 319 13.0 25.0 0.01 0.80 0.13 87 993.0
20171119084012 39 330 12.0 24.0 0.01 0.80 0.13 88 993.0
20171119083508 39 332 13.0 22.0 0.02 0.80 0.13 88 993.0
20171119083013 39 327 14.0 25.0 0.02 0.80 0.13 89 992.4
20171119082507 39 321 11.0 22.0 0.02 0.80 0.13 89 992.4
20171119082012 39 321 12.0 22.0 0.02 0.80 0.13 90 992.4
20171119081508 39 328 14.0 21.0 0.03 0.80 0.13 91 991.8
20171119081012 38 330 13.0 22.0 0.03 0.80 0.13 91 991.8
20171119080509 38 331 12.0 21.0 0.03 0.80 0.13 91 991.7
20171119080012 38 331 13.0 21.0 0.04 0.80 0.13 91 991.7
20171119075508 38 334 10.0 23.0 0.03 0.80 0.12 91 991.4
20171119075012 38 324 14.0 22.0 0.03 0.80 0.12 92 991.2
20171119064014 38 323 14.0 25.0 0.05 0.76 0.08 92 988.5
20171119063508 38 329 17.0 25.0 0.06 0.76 0.08 92 988.5
20171119063013 39 327 16.0 24.0 0.06 0.75 0.07 92 988.5
20171119062508 39 314 16.0 28.0 0.06 0.75 0.07 93 988.5
20171119062013 39 328 13.0 28.0 0.06 0.75 0.07 93 988.2
20171119061508 39 321 14.0 28.0 0.06 0.74 0.06 92 987.4
20171119061014 39 316 14.0 28.0 0.06 0.74 0.06 93 987.4
20171119060509 39 337 16.0 25.0 0.06 0.74 0.06 93 987.4